DW3735 Weather Reports


Display with metric or nautical units.
time (UTC)temp
F
wind
direction
speed
MPH
gust
MPH
rain 1hr
in
rain 24hr
in
rain mn
in
humidity
%
barometer
mb
20260510084018 46 0.0 0.0 0.00 0.21 0.00 74 1003.9
20260510083017 46 0.0 0.0 0.00 0.21 0.00 74 1003.8
20260510082035 46 0.0 0.0 0.00 0.21 0.00 75 1003.6
20260510081037 46 0.0 0.0 0.00 0.21 0.00 75 1003.5
20260510080017 46 0.0 0.0 0.00 0.21 0.00 75 1003.3
20260510075037 46 0.0 0.0 0.00 0.21 0.00 75 1003.1
20260510074017 47 0.0 0.0 0.00 0.21 0.00 75 1002.9
20260510073017 47 0.0 0.0 0.00 0.21 0.00 76 1002.8
20260510072016 47 0.0 0.0 0.00 0.21 0.00 78 1002.8
20260510071015 47 0.0 3.0 0.00 0.21 0.00 77 1002.7
20260510070015 48 0.0 2.0 0.00 0.21 0.00 78 1002.6
20260510065015 48 0.0 0.0 0.00 0.21 0.00 78 1002.4
20260510064036 48 0.0 2.0 0.00 0.21 0.00 78 1002.3
20260510063016 48 225 2.0 3.0 0.00 0.21 0.00 79 1002.1
20260510062015 49 270 1.0 3.0 0.00 0.21 0.00 79 1002.0
20260510061015 49 225 1.0 3.0 0.00 0.21 0.00 79 1001.9
20260510060015 49 225 1.0 4.0 0.00 0.21 0.00 79 1001.7
20260510055016 49 248 1.0 2.0 0.00 0.21 0.00 79 1001.6
20260510054015 49 225 1.0 3.0 0.00 0.21 0.00 79 1001.5
20260510053015 50 225 2.0 4.0 0.00 0.21 0.00 80 1001.4
20260510052015 50 225 2.0 4.0 0.00 0.21 0.00 81 1001.5
20260510051015 50 203 2.0 5.0 0.00 0.21 0.00 81 1001.3
20260510050015 49 158 2.0 5.0 0.00 0.21 0.00 83 1001.3
20260510045015 49 0.0 0.0 0.00 0.21 0.00 84 1001.2
20260510044035 49 0.0 0.0 0.00 0.21 0.00 86 1001.1
20260510043015 49 0.0 2.0 0.00 0.21 0.00 87 1001.1
20260510042016 49 0.0 5.0 0.00 0.21 0.00 87 1001.2
20260510041016 48 0.0 0.0 0.01 0.21 0.00 86 1001.1
20260510040015 48 0.0 0.0 0.03 0.21 0.00 85 1000.9
20260510035015 48 0.0 1.0 0.06 0.21 0.21 84 1000.9
20260510034016 49 158 2.0 4.0 0.16 0.21 0.21 83 1001.0
20260510033016 49 158 2.0 5.0 0.19 0.21 0.21 83 1000.9
20260510032016 49 158 2.0 5.0 0.21 0.21 0.21 84 1001.0
20260510031016 49 0.0 0.0 0.20 0.20 0.20 82 1001.3
20260510030016 49 225 1.0 4.0 0.18 0.18 0.18 80 1001.7
20260510025016 50 270 1.0 7.0 0.16 0.16 0.16 76 1001.5
20260510024016 52 248 5.0 10.0 0.06 0.06 0.06 72 1001.5
20260510023016 54 158 2.0 5.0 0.02 0.02 0.02 65 999.5
20260510022016 56 158 4.0 8.0 0.00 0.00 0.00 58 999.4
20260510021016 56 135 7.0 11.0 0.00 0.00 0.00 56 999.5
20260510020016 56 135 4.0 8.0 0.00 0.00 0.00 55 999.8
20260510015015 57 158 4.0 7.0 0.00 0.00 0.00 53 1000.2
20260510014016 57 135 5.0 10.0 0.00 0.00 0.00 52 1000.3
20260510013016 57 180 5.0 12.0 0.00 0.00 0.00 52 1000.7
20260510012015 57 158 7.0 12.0 0.00 0.00 0.00 51 1000.8
20260510011016 58 180 4.0 8.0 0.00 0.00 0.00 49 1001.0
20260510010016 58 180 5.0 15.0 0.00 0.00 0.00 47 1001.1
20260510005016 59 180 4.0 10.0 0.00 0.00 0.00 44 1001.3
20260510004036 60 203 4.0 9.0 0.00 0.00 0.00 42 1001.1
20260510003016 60 203 4.0 8.0 0.00 0.00 0.00 40 1000.8
20260510002016 60 203 3.0 6.0 0.00 0.00 0.00 40 1001.1
20260510001016 60 180 5.0 10.0 0.00 0.00 0.00 40 1001.1
20260510000016 60 180 6.0 14.0 0.00 0.00 0.00 39 1001.0
20260509235016 61 180 7.0 16.0 0.00 0.00 0.00 38 1001.2
20260509234016 61 158 6.0 13.0 0.00 0.00 0.00 40 1001.1
20260509233016 61 180 6.0 12.0 0.00 0.00 0.00 40 1001.0
20260509232015 61 180 5.0 10.0 0.00 0.00 0.00 38 1001.2
20260509231016 61 225 5.0 10.0 0.00 0.00 0.00 40 1001.5
20260509230036 62 180 5.0 12.0 0.00 0.00 0.00 36 1001.2
20260509225016 62 158 4.0 7.0 0.00 0.00 0.00 35 1001.1
20260509224016 62 180 7.0 14.0 0.00 0.00 0.00 33 1001.4
20260509223015 62 180 4.0 6.0 0.00 0.00 0.00 32 1001.3
20260509222036 63 180 3.0 9.0 0.00 0.00 0.00 32 1001.3
20260509221036 63 180 4.0 8.0 0.00 0.00 0.00 29 1001.3
20260509220036 63 158 4.0 7.0 0.00 0.00 0.00 31 1001.3
20260509215016 63 158 5.0 15.0 0.00 0.00 0.00 27 1001.5
20260509214016 63 158 4.0 8.0 0.00 0.00 0.00 28 1001.5
20260509213016 63 158 7.0 13.0 0.00 0.00 0.00 28 1001.7
20260509212015 63 158 7.0 11.0 0.00 0.00 0.00 28 1001.8
20260509211016 63 158 5.0 11.0 0.00 0.00 0.00 28 1001.8
20260509210036 63 180 5.0 11.0 0.00 0.00 0.00 30 1001.9
20260509205016 63 158 8.0 15.0 0.00 0.00 0.00 27 1001.9
20260509204016 63 158 6.0 11.0 0.00 0.00 0.00 27 1002.0
20260509203016 63 158 8.0 17.0 0.00 0.00 0.00 27 1002.2
20260509202016 63 135 9.0 16.0 0.00 0.00 0.00 29 1002.2
20260509201016 63 180 4.0 7.0 0.00 0.00 0.00 27 1002.4
20260509200016 63 158 7.0 14.0 0.00 0.00 0.00 26 1002.3
20260509195016 63 180 7.0 17.0 0.00 0.00 0.00 27 1002.4
20260509194016 63 158 7.0 14.0 0.00 0.00 0.00 27 1002.4
20260509193015 62 135 7.0 13.0 0.00 0.00 0.00 27 1002.7
20260509192035 63 203 5.0 14.0 0.00 0.00 0.00 27 1002.6
20260509191016 63 158 8.0 20.0 0.00 0.00 0.00 30 1002.8
20260509190016 62 135 7.0 14.0 0.00 0.00 0.00 29 1002.9
20260509185015 62 135 8.0 17.0 0.00 0.00 0.00 27 1003.2
20260509184036 62 135 8.0 13.0 0.00 0.00 0.00 30 1003.3
20260509183015 62 135 8.0 14.0 0.00 0.00 0.00 32 1003.6
20260509182015 62 158 8.0 18.0 0.00 0.00 0.00 34 1003.8
20260509181016 61 135 6.0 11.0 0.00 0.00 0.00 34 1003.9
20260509180016 61 158 7.0 13.0 0.00 0.00 0.00 35 1003.8
20260509175016 61 158 8.0 14.0 0.00 0.00 0.00 34 1004.1
20260509174016 61 135 10.0 14.0 0.00 0.00 0.00 33 1004.3
20260509173035 61 180 3.0 7.0 0.00 0.00 0.00 33 1004.3
20260509172016 61 158 9.0 17.0 0.00 0.00 0.00 31 1004.3
20260509171016 62 180 6.0 14.0 0.00 0.00 0.00 29 1004.4
20260509170016 63 225 4.0 8.0 0.00 0.00 0.00 30 1004.5
20260509165016 62 180 3.0 8.0 0.00 0.00 0.00 30 1004.8
20260509164016 62 203 4.0 9.0 0.00 0.00 0.00 29 1005.2
20260509163016 62 225 5.0 9.0 0.00 0.00 0.00 31 1005.1
20260509162016 62 225 4.0 9.0 0.00 0.00 0.00 31 1005.3
20260509161016 62 203 4.0 6.0 0.00 0.00 0.00 30 1005.5
20260509160036 61 225 4.0 8.0 0.00 0.00 0.00 30 1005.8
20260509155015 61 180 4.0 8.0 0.00 0.00 0.00 33 1005.9
20260509154016 60 180 3.0 4.0 0.00 0.00 0.00 34 1006.1
20260509153016 60 180 4.0 7.0 0.00 0.00 0.00 37 1006.2
20260509152016 59 180 3.0 10.0 0.00 0.00 0.00 35 1006.4
20260509151016 59 180 5.0 9.0 0.00 0.00 0.00 36 1006.5
20260509150016 59 180 4.0 9.0 0.00 0.00 0.00 36 1006.7
20260509145036 58 180 2.0 6.0 0.00 0.00 0.00 38 1006.8
20260509144036 57 203 3.0 5.0 0.00 0.00 0.00 36 1006.8
20260509143016 57 158 3.0 5.0 0.00 0.00 0.00 39 1006.9
20260509142016 57 180 4.0 9.0 0.00 0.00 0.00 39 1007.1
20260509141016 56 203 1.0 3.0 0.00 0.00 0.00 42 1007.1
20260509140016 55 225 1.0 2.0 0.00 0.00 0.00 43 1007.3
20260509135016 54 225 1.0 5.0 0.00 0.00 0.00 45 1007.2
20260509134016 54 180 2.0 4.0 0.00 0.00 0.00 44 1007.2
20260509133016 53 180 2.0 3.0 0.00 0.00 0.00 44 1007.2
20260509132016 53 225 2.0 5.0 0.00 0.00 0.00 45 1007.3
20260509131016 52 225 2.0 3.0 0.00 0.00 0.00 45 1007.3
20260509130016 52 180 2.0 3.0 0.00 0.00 0.00 47 1007.4
20260509125016 52 180 2.0 3.0 0.00 0.00 0.00 45 1007.4
20260509124016 52 203 2.0 5.0 0.00 0.00 0.00 48 1007.6
20260509123016 51 158 2.0 4.0 0.00 0.00 0.00 47 1007.7
20260509122036 51 225 2.0 4.0 0.00 0.00 0.00 49 1007.7
20260509121016 50 203 2.0 9.0 0.00 0.00 0.00 49 1007.6
20260509120036 50 203 3.0 5.0 0.00 0.00 0.00 49 1007.7
20260509115036 49 158 3.0 5.0 0.00 0.00 0.00 50 1007.7
20260509114016 48 158 2.0 3.0 0.00 0.00 0.00 54 1007.9
20260509113036 48 158 1.0 4.0 0.00 0.00 0.00 53 1007.7
20260509112016 47 158 1.0 3.0 0.00 0.00 0.00 56 1007.6
20260509111015 46 0.0 1.0 0.00 0.00 0.00 57 1007.6
20260509110016 46 158 1.0 3.0 0.00 0.00 0.00 59 1007.6
20260509105016 45 0.0 2.0 0.00 0.00 0.00 60 1007.5
20260509104016 45 158 2.0 4.0 0.00 0.00 0.00 61 1007.4
20260509103016 45 158 1.0 4.0 0.00 0.00 0.00 62 1007.4
20260509102016 44 0.0 0.0 0.00 0.00 0.00 62 1007.4
20260509101016 45 0.0 2.0 0.00 0.00 0.00 62 1007.3
20260509100016 45 0.0 2.0 0.00 0.00 0.00 63 1007.3
20260509095016 45 158 2.0 3.0 0.00 0.00 0.00 62 1007.2
20260509094015 45 158 2.0 3.0 0.00 0.00 0.00 62 1007.1
20260509093016 45 0.0 3.0 0.00 0.00 0.00 61 1007.1
20260509092016 45 0.0 0.0 0.00 0.00 0.00 60 1007.1
20260509091016 46 0.0 0.0 0.00 0.00 0.00 60 1006.9
20260509090016 46 0.0 0.0 0.00 0.00 0.00 60 1007.0
20260509085016 46 0.0 0.0 0.00 0.00 0.00 60 1007.0